Location: Équennes
(49.7375°N, 1.9622°E)
Time: 00:31:02
(UTC+00:00)

ATLAS CENTAUR R/B - Pass Details

Date: 28 January 2023
Orbit: 449 x 650 km, 64.7° (Epoch: 28 March)

Event Time Altitude Azimuth Distance (km) Brightness Sun altitude
Rises 19:12:18 0° 230° (SW) 2,987 5.8 -24.5°
Reaches altitude 10° 19:14:40 10° 233° (SW) 2,068 4.9 -24.9°
Maximum altitude 19:19:20 60° 314° (NW) 736 2.0 -25.6°
Enters shadow 19:19:47 57° 342° (NNW) 757 2.0 -25.7°
